Location: Marcé
(47.5801°N, 0.3280°W)
Time: 23:00:52
(UTC+01:00)

S-56A Canister/Altair - Pass Details

Date: 04 December 2021
Orbit: 633 x 2499 km, 38.9° (Epoch: 16 January)

Event Time Altitude Azimuth Distance (km) Brightness Sun altitude
Rises 23:32:21 0° 215° (SW) 5,578 - -60.2°
Reaches altitude 10° 23:37:10 10° 204° (SSW) 4,273 - -60.7°
Maximum altitude 23:45:23 25° 156° (SSE) 2,658 - -61.5°
Drops below altitude 10° 23:51:33 10° 104° (ESE) 3,127 - -62.0°
Sets 23:54:26 0° 91° (E) 3,838 - -62.3°
